[[{"header":{"parameterUnit":"m.s-1","parameterCategory":1,"la1":30.2991,"la2":30.254,"lo1":-89.0895,"lo2":-89.0444,"dy":0.0017,"dx":0.0017,"nx":28,"ny":28,"refTime":"2025-12-02T03:00:00:Z","depth":0,"parameterNumber":2,"parameterNumberName":"U-component_of_WINDS"},"data":[0,0,0,0,0,0,0,0,0,0,0,0,0,0,0,0,0,0,0,0,0,0,0,0,0,0,0,0,0,0,0,0,0,0,0,0,0,0,0,0,0,0,0,0,0,0,0,0,0,0,0,0,0,0,0,0,0,0,-0.9796,-0.9796,0,-0.9832,-0.9832,-0.9832,-0.9824,-0.9823,-0.9822,-0.9822,-0.9859,-0.9861,-0.9862,0,0,0,0,0,0,0,0,0,0,0,0,0,-0.9719,-0.972,-0.9796,-0.9796,-0.9796,-0.9832,-0.9832,-0.9833,-0.9824,-0.9823,-0.9822,-0.9821,-0.9859,-0.9861,-0.9863,0,0,0,0,0,0,0,0,0,0,0,0,0,-0.9753,-0.9721,-0.9795,-0.9796,-0.9797,-0.9831,-0.9832,-0.9833,-0.9824,-0.9823,-0.9822,-0.9821,-0.9858,-0.986,-0.9863,-0.9899,0,0,-0.987,-0.9871,0,0,0,0,0,0,0,0,-0.9751,-0.9756,-0.9796,-0.9796,-0.9797,-0.9822,-0.9819,-0.9855,-0.9824,-0.9814,-0.9822,-0.9821,-0.9848,-0.9851,-0.986,-0.9901,-0.9902,-0.9871,-0.9872,-0.9873,-0.9874,0,0,0,0,0,0,0,-0.9749,-0.9754,-0.981,-0.9796,-0.9797,-0.9795,-0.9799,-0.9826,-0.9836,-0.9815,-0.9814,-0.9818,-0.9848,-0.9858,-0.9861,-0.9903,-0.9871,-0.9873,-0.9874,-0.9875,-0.9974,-0.9975,0,0,0,0,0,0,-0.9746,-0.9753,-0.9809,-0.9811,-0.9771,-0.9797,-0.9801,-0.9815,-0.9836,-0.9838,-0.9819,-0.9818,-0.9854,-0.9858,-0.9862,-0.9905,-0.9873,-0.9875,-0.9877,-0.9973,-0.9974,-0.9975,0,0,0,0,0,0,-0.9744,-0.9751,-0.9807,-0.9782,-0.9789,-0.9799,-0.9815,-0.9816,-0.9826,-0.9839,-0.9841,-0.9827,-0.9853,-0.9859,-0.989,-0.9906,-0.9877,-0.9879,-0.9971,-0.9973,-0.9975,-0.9992,0,0,0,0,0,0,-0.9742,-0.9751,-0.9765,-0.9782,-0.979,-0.9834,-0.9816,-0.9818,-0.983,-0.9829,-0.9848,-0.985,-0.9853,-0.9886,-0.9892,-0.9909,-0.9881,-0.997,-0.9972,-0.9974,-0.999,-0.9994,-0.9998,0,0,0,0,0,-0.974,-0.9769,-0.9766,-0.9772,-0.9808,-0.9835,-0.984,-0.9843,-0.9832,-0.9846,-0.9854,-0.9849,-0.9903,-0.9889,-0.9896,-0.9914,-0.9969,-0.9971,-0.9974,-0.9988,-0.9993,-0.9998,0,0,0,0,0,0,-0.9754,-0.9771,-0.9768,-0.9803,-0.9818,-0.9834,-0.9852,-0.9848,-0.9867,-0.9865,-0.9868,-0.9872,-0.9903,-0.9912,-0.9896,-0.995,-0.9934,-0.9939,-0.9943,-0.9948,-0.9952,-0.9949,-0.9883,0,0,0,0,0,-0.9761,-0.9782,-0.9796,-0.9826,-0.9833,-0.9841,-0.9853,-0.9854,-0.987,-0.9876,-0.9886,-0.9901,-0.9922,-0.9935,-0.9955,-0.9991,-0.9995,-1.0007,-1.0011,-1.0014,-1.0017,-1.0036,-1.0041,-0.9984,-0.9984,-0.9984,0,0,-0.9776,-0.9788,-0.9801,-0.9829,-0.984,-0.9861,-0.9846,-0.987,-0.9886,-0.9879,-0.9909,-0.9917,-0.9934,-0.9968,-0.9983,-0.9976,-1.0034,-1.0017,-1.0019,-1.0021,-1.0039,-1.0045,-1.005,-0.9985,-0.9985,-0.9985,0,0,-0.9815,-0.9826,-0.9852,-0.9863,-0.988,-0.9885,-0.9891,-0.9908,-0.9913,-0.9942,-0.9938,-0.9956,-0.9992,-1.0004,-1.0014,-1.0056,-1.0052,-1.0062,-1.0082,-1.0101,-1.0105,-1.0109,-1.0124,-1.0129,-1.0065,-1.0066,-1.0066,0,-0.9832,-0.9864,-0.9865,-0.9889,-0.9901,-0.9895,-0.9921,-0.9932,-0.9955,-0.9964,-0.9955,-0.9998,-1.0009,-1.0045,-1.0055,-1.0064,-1.0071,-1.006,-1.0104,-1.0108,-1.0112,-1.0126,-1.0131,-1.0067,-1.0067,-1.0066,-1.0066,0,-0.9883,-0.9905,-0.9924,-0.9946,-0.996,-0.9984,-0.999,-1.0003,-1.0003,-1.0008,-1.0038,-1.0051,-1.0073,-1.0081,-1.0081,-1.0116,-1.0111,-1.0103,-1.0088,-1.0119,-1.0132,-1.0137,-1.0068,-1.0068,-1.0068,-1.0067,0,0,-0.9933,-0.9954,-0.9961,-0.997,-0.9988,-1.0005,-1.0029,-1.005,-1.0062,-1.0077,-1.0097,-1.0126,-1.0119,-1.0131,-1.0132,-1.0148,-1.0179,-1.0138,-1.0138,-1.0145,-1.0218,-1.0224,-1.023,-1.0176,-1.0177,-1.0178,-1.0217,0,-0.9973,-1.0016,-1.0017,-1.0056,-1.0076,-1.007,-1.0091,-1.0104,-1.0109,-1.0127,-1.0133,-1.0153,-1.0142,-1.0149,-1.0165,-1.0172,-1.0194,-1.0169,-1.0194,-1.0195,-1.0191,-1.0237,-1.0244,-1.028,-1.0222,-1.0223,-1.0223,0,-1.0026,-1.0043,-1.0083,-1.0097,-1.0105,-1.0124,-1.0143,-1.016,-1.0174,-1.0177,-1.0189,-1.0187,-1.0211,-1.0195,-1.0227,-1.0211,-1.0221,-1.0226,-1.0227,-1.023,-1.0212,-1.0241,-1.0292,-1.0297,-1.0231,-1.0231,-1.023,0,-1.0058,-1.0091,-1.0119,-1.0127,-1.0144,-1.0157,-1.0164,-1.0178,-1.0189,-1.0205,-1.0213,-1.0232,-1.0242,-1.0256,-1.0259,-1.0247,-1.0292,-1.0276,-1.0295,-1.0295,-1.0305,-1.0304,-1.0358,-1.0311,-1.0311,-1.0311,-1.0311,0,-1.0104,-1.0128,-1.0133,-1.0151,-1.0178,-1.0179,-1.0206,-1.0213,-1.0224,-1.0242,-1.0238,-1.0255,-1.0258,-1.0275,-1.0278,-1.0304,-1.0309,-1.0311,-1.0312,-1.0312,-1.0312,-1.0319,-1.0317,-1.0312,-1.0312,-1.0312,-1.0311,0,-1.0145,-1.0149,-1.0179,-1.0192,-1.0196,-1.0215,-1.0226,-1.0243,-1.0247,-1.027,-1.0275,-1.0282,-1.0303,-1.0307,-1.0331,-1.0332,-1.0364,-1.0361,-1.0359,-1.0359,-1.0377,-1.0376,-1.0438,-1.0446,-1.0394,-1.0394,-1.0395,0,-1.0173,-1.0192,-1.0207,-1.0218,-1.0226,-1.0246,-1.0257,-1.0259,-1.0271,-1.0288,-1.0302,-1.0322,-1.0338,-1.037,-1.0377,-1.0395,-1.0394,-1.0414,-1.0396,-1.0395,-1.0394,-1.0393,-1.0394,-1.0418,-1.0418,-1.0419,-1.0419,0,-1.0224,-1.0224,-1.0242,-1.0259,-1.0273,-1.0287,-1.0301,-1.031,-1.0313,-1.0327,-1.0348,-1.036,-1.0384,-1.0403,-1.0421,-1.0429,-1.0424,-1.0424,-1.043,-1.043,-1.0428,-1.0429,-1.0368,-1.0423,-1.0423,-1.0422,-1.0422,-1.0422,-1.0259,-1.0275,-1.0288,-1.0307,-1.0317,-1.0329,-1.0345,-1.035,-1.0367,-1.0387,-1.0386,-1.0409,-1.0421,-1.0444,-1.0453,-1.047,-1.0463,-1.0471,-1.0473,-1.0475,-1.0477,-1.0425,-1.0473,-1.0473,-1.0473,-1.0473,-1.0473,0,-1.0309,-1.0317,-1.0334,-1.0352,-1.0367,-1.0361,-1.0375,-1.0387,-1.0407,-1.0419,-1.0434,-1.0457,-1.0475,-1.0483,-1.0501,-1.0513,-1.0512,-1.0518,-1.0517,-1.0519,-1.0482,-1.0475,-1.0519,-1.0519,-1.0519,-1.0519,-1.0519,-1.0519,-1.0337,-1.0364,-1.0366,-1.0397,-1.0404,-1.0426,-1.0434,-1.0445,-1.0454,-1.048,-1.0495,-1.05,-1.051,-1.0528,-1.0544,-1.0546,-1.0553,-1.056,-1.0561,-1.0526,-1.0522,-1.0517,-1.0511,-1.0561,-1.0562,-1.0597,-1.0597,-1.0597]},{"header":{"parameterUnit":"m.s-1","parameterCategory":1,"la1":30.2991,"la2":30.254,"lo1":-89.0895,"lo2":-89.0444,"dy":0.0017,"dx":0.0017,"nx":28,"ny":28,"refTime":"2025-12-02T03:00:00:Z","depth":0,"parameterNumber":3,"parameterNumberName":"V-component_of_WINDS"},"data":[0,0,0,0,0,0,0,0,0,0,0,0,0,0,0,0,0,0,0,0,0,0,0,0,0,0,0,0,0,0,0,0,0,0,0,0,0,0,0,0,0,0,0,0,0,0,0,0,0,0,0,0,0,0,0,0,0,0,-4.6818,-4.6819,0,-4.6909,-4.691,-4.6911,-4.6881,-4.6879,-4.6877,-4.6875,-4.6965,-4.6969,-4.6973,0,0,0,0,0,0,0,0,0,0,0,0,0,-4.6614,-4.6618,-4.6818,-4.6819,-4.682,-4.6909,-4.691,-4.6911,-4.6881,-4.6879,-4.6877,-4.6874,-4.6963,-4.6968,-4.6973,0,0,0,0,0,0,0,0,0,0,0,0,0,-4.6703,-4.6619,-4.6818,-4.6816,-4.6817,-4.6909,-4.691,-4.6912,-4.6882,-4.6879,-4.6876,-4.6873,-4.6962,-4.6968,-4.6974,-4.7072,0,0,-4.6993,-4.6996,0,0,0,0,0,0,0,0,-4.6698,-4.6711,-4.6815,-4.6816,-4.6817,-4.6881,-4.6871,-4.6965,-4.6883,-4.6857,-4.6875,-4.6872,-4.6939,-4.6947,-4.697,-4.7076,-4.708,-4.6994,-4.6998,-4.7,-4.7002,0,0,0,0,0,0,0,-4.6692,-4.6707,-4.6854,-4.6817,-4.6818,-4.6809,-4.6819,-4.6889,-4.6913,-4.6859,-4.6857,-4.6868,-4.6939,-4.6964,-4.6972,-4.7081,-4.6994,-4.6999,-4.7003,-4.7006,-4.7271,-4.7274,0,0,0,0,0,0,-4.6686,-4.6702,-4.6851,-4.6857,-4.6749,-4.6815,-4.6826,-4.6863,-4.6912,-4.6917,-4.6871,-4.6867,-4.6955,-4.6965,-4.6975,-4.7093,-4.7,-4.7006,-4.701,-4.7268,-4.7271,-4.7275,0,0,0,0,0,0,-4.6681,-4.6699,-4.6847,-4.6779,-4.6797,-4.6822,-4.6864,-4.6867,-4.6892,-4.6921,-4.6925,-4.6893,-4.6953,-4.6966,-4.7048,-4.7095,-4.7009,-4.7015,-4.7264,-4.7269,-4.7273,-4.7328,0,0,0,0,0,0,-4.6676,-4.6698,-4.6737,-4.678,-4.6801,-4.692,-4.6867,-4.6871,-4.6904,-4.6899,-4.6943,-4.6947,-4.6952,-4.7039,-4.7054,-4.7102,-4.702,-4.726,-4.7266,-4.7272,-4.7322,-4.7335,-4.7345,0,0,0,0,0,-4.6669,-4.6748,-4.6739,-4.6757,-4.685,-4.6923,-4.6935,-4.6939,-4.6907,-4.6946,-4.6964,-4.6946,-4.7088,-4.7048,-4.7065,-4.7115,-4.7257,-4.7264,-4.7271,-4.7317,-4.7332,-4.7345,0,0,0,0,0,0,-4.6708,-4.6753,-4.6744,-4.684,-4.6878,-4.6918,-4.6966,-4.6955,-4.7002,-4.6996,-4.6998,-4.7008,-4.7092,-4.7112,-4.7066,-4.7212,-4.7167,-4.7178,-4.7196,-4.7211,-4.7222,-4.7215,-4.7025,0,0,0,0,0,-4.6728,-4.6785,-4.6821,-4.6902,-4.6922,-4.6941,-4.6973,-4.6973,-4.7012,-4.7028,-4.7053,-4.709,-4.7143,-4.7178,-4.7228,-4.7325,-4.7334,-4.7368,-4.7379,-4.7388,-4.7398,-4.745,-4.7465,-4.7299,-4.7299,-4.7299,0,0,-4.677,-4.6801,-4.6837,-4.6911,-4.6941,-4.6998,-4.6955,-4.7018,-4.706,-4.7037,-4.7116,-4.7136,-4.7178,-4.7267,-4.7308,-4.7286,-4.7446,-4.7398,-4.7405,-4.7409,-4.7459,-4.7475,-4.7488,-4.7304,-4.7303,-4.7302,0,0,-4.6875,-4.6905,-4.6976,-4.7007,-4.7053,-4.7065,-4.7082,-4.7123,-4.7136,-4.7215,-4.7199,-4.7249,-4.734,-4.7371,-4.7398,-4.7515,-4.7499,-4.7531,-4.7589,-4.764,-4.7653,-4.7664,-4.7705,-4.772,-4.754,-4.754,-4.754,0,-4.692,-4.7009,-4.7013,-4.7078,-4.711,-4.7093,-4.7164,-4.7193,-4.7253,-4.7275,-4.725,-4.7364,-4.7391,-4.7487,-4.7516,-4.7539,-4.7557,-4.7526,-4.7651,-4.7663,-4.7673,-4.7712,-4.7728,-4.7544,-4.7543,-4.7543,-4.7543,0,-4.7062,-4.7123,-4.7174,-4.7234,-4.7272,-4.7339,-4.7352,-4.739,-4.7387,-4.7401,-4.7482,-4.7514,-4.757,-4.7593,-4.759,-4.7689,-4.7674,-4.765,-4.7605,-4.7693,-4.7729,-4.7744,-4.7549,-4.7548,-4.7547,-4.7546,0,0,-4.7195,-4.7256,-4.7275,-4.7301,-4.735,-4.7397,-4.7463,-4.7519,-4.7551,-4.7592,-4.7647,-4.7724,-4.7703,-4.7734,-4.7734,-4.7778,-4.7868,-4.7749,-4.775,-4.777,-4.7977,-4.7995,-4.8012,-4.7858,-4.7861,-4.7863,-4.7974,0,-4.7304,-4.7422,-4.7428,-4.7534,-4.759,-4.7574,-4.7631,-4.7667,-4.7682,-4.773,-4.7745,-4.7801,-4.7768,-4.7787,-4.783,-4.7848,-4.7909,-4.784,-4.7907,-4.791,-4.7897,-4.8031,-4.805,-4.8153,-4.7988,-4.7991,-4.7992,0,-4.7447,-4.7494,-4.7607,-4.7647,-4.7671,-4.7723,-4.7774,-4.7821,-4.7861,-4.7868,-4.7903,-4.7897,-4.7963,-4.7916,-4.8006,-4.7958,-4.7986,-4.7999,-4.8003,-4.8009,-4.7956,-4.8041,-4.8186,-4.8201,-4.8015,-4.8013,-4.8012,0,-4.7532,-4.7624,-4.7702,-4.7725,-4.7775,-4.7812,-4.7834,-4.7871,-4.7904,-4.7948,-4.797,-4.8021,-4.8049,-4.8088,-4.8095,-4.806,-4.8186,-4.8139,-4.8193,-4.8192,-4.8219,-4.8218,-4.8371,-4.8238,-4.8238,-4.8238,-4.8237,0,-4.7653,-4.7723,-4.7741,-4.779,-4.7866,-4.7872,-4.7947,-4.7966,-4.7999,-4.805,-4.8039,-4.8086,-4.8093,-4.8142,-4.8148,-4.8221,-4.8234,-4.8241,-4.8242,-4.8242,-4.8241,-4.826,-4.8253,-4.8242,-4.8241,-4.824,-4.8239,0,-4.7761,-4.7777,-4.7862,-4.7902,-4.7914,-4.7968,-4.8002,-4.8048,-4.8061,-4.8126,-4.8141,-4.8162,-4.8219,-4.823,-4.8297,-4.8301,-4.8388,-4.8382,-4.8375,-4.8375,-4.8427,-4.8422,-4.8598,-4.8621,-4.8473,-4.8475,-4.8476,0,-4.7838,-4.7891,-4.7937,-4.7971,-4.7995,-4.805,-4.8084,-4.8091,-4.8127,-4.8175,-4.8215,-4.8271,-4.8316,-4.8407,-4.8428,-4.8478,-4.8473,-4.8531,-4.848,-4.8479,-4.8473,-4.847,-4.8475,-4.854,-4.8542,-4.8543,-4.8544,0,-4.7971,-4.7976,-4.8027,-4.808,-4.8121,-4.8163,-4.8203,-4.8231,-4.8242,-4.8283,-4.8342,-4.8377,-4.8446,-4.8501,-4.8552,-4.8573,-4.856,-4.856,-4.8575,-4.8576,-4.857,-4.8573,-4.8401,-4.8556,-4.8555,-4.8554,-4.8553,-4.8553,-4.8065,-4.8111,-4.8151,-4.8208,-4.8238,-4.8276,-4.8321,-4.834,-4.839,-4.8447,-4.8448,-4.8512,-4.8548,-4.8616,-4.864,-4.8689,-4.867,-4.8692,-4.8698,-4.8703,-4.8708,-4.8562,-4.8698,-4.8698,-4.8698,-4.8697,-4.8697,0,-4.8198,-4.8223,-4.8275,-4.8331,-4.8375,-4.8361,-4.8404,-4.8441,-4.8498,-4.8534,-4.8579,-4.8646,-4.8699,-4.8724,-4.8776,-4.8811,-4.8806,-4.8824,-4.8821,-4.8826,-4.8722,-4.8703,-4.8827,-4.8827,-4.8827,-4.8827,-4.8827,-4.8827,-4.8272,-4.8349,-4.8359,-4.8451,-4.8475,-4.8538,-4.8564,-4.8598,-4.8627,-4.8702,-4.8747,-4.8763,-4.8795,-4.8849,-4.8897,-4.8903,-4.8922,-4.8943,-4.8945,-4.8847,-4.8834,-4.8821,-4.8804,-4.8947,-4.8947,-4.9046,-4.9047,-4.9048]}]]